| time (UTC) | temp F | wind direction | speed knots | gust knots | rain 1hr in | rain 24hr in | rain mn in | humidity % | barometer mb |
| 20260503203100 | 61 | 226 | 0.9 | 7.0 | 0.00 | 0.00 | 0.00 | 54 | 1012.1 |
| 20260503202546 | 61 | 230 | 0.9 | 3.5 | 0.00 | 0.00 | 0.00 | 55 | 1012.0 |
| 20260503202044 | 61 | 274 | 0.0 | 3.5 | 0.00 | 0.00 | 0.00 | 55 | 1011.9 |
| 20260503201559 | 61 | 0 | 0.9 | 3.5 | 0.00 | 0.00 | 0.00 | 55 | 1011.8 |
| 20260503201047 | 61 | 0 | 0.9 | 3.5 | 0.00 | 0.00 | 0.00 | 55 | 1011.7 |
| 20260503200548 | 61 | 279 | 0.9 | 3.5 | 0.00 | 0.00 | 0.00 | 54 | 1011.6 |
| 20260503200057 | 61 | 315 | 0.9 | 4.3 | 0.00 | 0.00 | 0.00 | 55 | 1011.6 |
| 20260503195551 | 61 | 256 | 1.7 | 5.2 | 0.00 | 0.00 | 0.00 | 55 | 1011.5 |
| 20260503195049 | 61 | 296 | 1.7 | 5.2 | 0.00 | 0.00 | 0.00 | 54 | 1011.5 |
| 20260503194558 | 61 | 292 | 0.9 | 4.3 | 0.00 | 0.00 | 0.00 | 55 | 1011.5 |
| 20260503194045 | 61 | 0 | 0.9 | 5.2 | 0.00 | 0.00 | 0.00 | 55 | 1011.4 |
| 20260503193547 | 61 | 0 | 1.7 | 7.0 | 0.00 | 0.00 | 0.00 | 55 | 1011.4 |
| 20260503193053 | 61 | 0 | 0.9 | 7.0 | 0.00 | 0.00 | 0.00 | 56 | 1011.4 |
| 20260503192544 | 61 | 278 | 1.7 | 7.0 | 0.00 | 0.00 | 0.00 | 55 | 1011.4 |
| 20260503192044 | 62 | 0 | 0.9 | 7.8 | 0.00 | 0.00 | 0.00 | 56 | 1011.4 |
| 20260503191554 | 62 | 332 | 0.9 | 7.8 | 0.00 | 0.00 | 0.00 | 57 | 1011.4 |
| 20260503191047 | 62 | 328 | 1.7 | 7.0 | 0.00 | 0.00 | 0.00 | 57 | 1011.2 |
| 20260503190545 | 62 | 319 | 1.7 | 7.0 | 0.00 | 0.00 | 0.00 | 58 | 1011.2 |
| 20260503190051 | 62 | 0 | 1.7 | 7.0 | 0.00 | 0.00 | 0.00 | 58 | 1011.1 |
| 20260503185545 | 62 | 288 | 1.7 | 7.0 | 0.00 | 0.00 | 0.00 | 58 | 1011.0 |
| 20260503185049 | 62 | 258 | 2.6 | 7.0 | 0.00 | 0.00 | 0.00 | 58 | 1011.0 |
| 20260503184552 | 63 | 326 | 1.7 | 7.8 | 0.00 | 0.00 | 0.00 | 57 | 1011.0 |
| 20260503184048 | 63 | 7 | 0.9 | 7.8 | 0.00 | 0.00 | 0.00 | 57 | 1011.1 |
| 20260503183547 | 63 | 308 | 1.7 | 7.0 | 0.00 | 0.00 | 0.00 | 57 | 1011.0 |
| 20260503183051 | 63 | 230 | 1.7 | 7.0 | 0.00 | 0.00 | 0.00 | 56 | 1011.0 |
| 20260503182544 | 63 | 281 | 1.7 | 7.0 | 0.00 | 0.00 | 0.00 | 56 | 1011.1 |
| 20260503182047 | 63 | 322 | 1.7 | 12.2 | 0.00 | 0.00 | 0.00 | 55 | 1011.0 |
| 20260503181557 | 64 | 276 | 1.7 | 12.2 | 0.00 | 0.00 | 0.00 | 55 | 1010.9 |
| 20260503181047 | 64 | 277 | 3.5 | 8.7 | 0.00 | 0.00 | 0.00 | 55 | 1010.8 |
| 20260503180545 | 64 | 317 | 0.9 | 9.6 | 0.00 | 0.00 | 0.00 | 55 | 1010.9 |
| 20260503180059 | 64 | 297 | 1.7 | 9.6 | 0.00 | 0.00 | 0.00 | 54 | 1010.9 |
| 20260503175545 | 64 | 313 | 1.7 | 9.6 | 0.00 | 0.00 | 0.00 | 53 | 1010.9 |
| 20260503175045 | 65 | 333 | 0.9 | 9.6 | 0.00 | 0.00 | 0.00 | 53 | 1010.9 |
| 20260503174557 | 65 | 324 | 2.6 | 12.2 | 0.00 | 0.00 | 0.00 | 52 | 1011.0 |
| 20260503174046 | 65 | 178 | 2.6 | 13.9 | 0.00 | 0.00 | 0.00 | 50 | 1011.0 |
| 20260503173546 | 65 | 270 | 4.3 | 13.9 | 0.00 | 0.00 | 0.00 | 49 | 1011.0 |
| 20260503173054 | 65 | 227 | 3.5 | 13.9 | 0.00 | 0.00 | 0.00 | 51 | 1011.0 |
| 20260503172545 | 65 | 222 | 3.5 | 9.6 | 0.00 | 0.00 | 0.00 | 52 | 1011.0 |
| 20260503172045 | 66 | 309 | 2.6 | 12.2 | 0.00 | 0.00 | 0.00 | 51 | 1011.1 |
| 20260503171550 | 65 | 225 | 3.5 | 12.2 | 0.00 | 0.00 | 0.00 | 50 | 1011.0 |
| 20260503171047 | 65 | 284 | 4.3 | 12.2 | 0.00 | 0.00 | 0.00 | 49 | 1011.1 |
| 20260503170547 | 66 | 281 | 2.6 | 10.4 | 0.00 | 0.00 | 0.00 | 49 | 1011.1 |
| 20260503150545 | 68 | 271 | 6.1 | 16.5 | 0.00 | 0.00 | 0.00 | 45 | 1011.0 |
| 20260503131044 | 68 | 14 | 2.6 | 10.4 | 0.00 | 0.00 | 0.00 | 48 | 1011.9 |
| 20260503130549 | 68 | 232 | 3.5 | 13.0 | 0.00 | 0.00 | 0.00 | 48 | 1011.9 |
| 20260503110542 | 65 | 257 | 2.6 | 8.7 | 0.00 | 0.15 | 0.00 | 61 | 1013.0 |
| 20260503110107 | 66 | 238 | 1.7 | 8.7 | 0.00 | 0.15 | 0.00 | 59 | 1013.1 |
| 20260503081553 | 58 | 243 | 0.0 | 4.3 | 0.00 | 0.33 | 0.00 | 79 | 1013.4 |
| 20260503081041 | 57 | 238 | 1.7 | 4.3 | 0.00 | 0.33 | 0.00 | 79 | 1013.5 |
| 20260503080544 | 57 | 236 | 0.9 | 3.5 | 0.00 | 0.33 | 0.00 | 79 | 1013.5 |
| 20260503072542 | 57 | 211 | 2.6 | 5.2 | 0.00 | 0.39 | 0.00 | 79 | 1013.5 |
| 20260503072043 | 57 | 197 | 0.0 | 3.5 | 0.00 | 0.39 | 0.00 | 81 | 1013.6 |
| 20260503071612 | 57 | 186 | 0.9 | 4.3 | 0.00 | 0.39 | 0.00 | 81 | 1013.5 |
| 20260503071042 | 56 | 196 | 0.9 | 4.3 | 0.00 | 0.39 | 0.00 | 82 | 1013.5 |
| 20260503070546 | 57 | 196 | 0.9 | 4.3 | 0.00 | 0.39 | 0.00 | 82 | 1013.5 |
| 20260503060110 | 54 | 0 | 0.0 | 1.7 | 0.00 | 0.49 | 0.00 | 87 | 1013.3 |
| 20260503055043 | 54 | 0 | 0.9 | 2.6 | 0.00 | 0.49 | 0.00 | 86 | 1013.4 |
| 20260503054558 | 55 | 0 | 0.9 | 7.0 | 0.00 | 0.49 | 0.00 | 85 | 1013.4 |
| 20260503054044 | 55 | 351 | 1.7 | 9.6 | 0.00 | 0.49 | 0.00 | 85 | 1013.4 |
| 20260503053542 | 56 | 305 | 3.5 | 9.6 | 0.00 | 0.49 | 0.00 | 83 | 1013.4 |
| 20260503053051 | 56 | 0 | 0.0 | 2.6 | 0.00 | 0.49 | 0.00 | 84 | 1013.3 |
| 20260503052541 | 56 | 0 | 0.9 | 4.3 | 0.00 | 0.49 | 0.00 | 84 | 1013.1 |
| 20260503052042 | 56 | 118 | 0.9 | 7.0 | 0.00 | 0.49 | 0.00 | 84 | 1013.1 |
| 20260503051552 | 56 | 155 | 0.9 | 7.0 | 0.00 | 0.49 | 0.00 | 85 | 1013.1 |
| 20260503051044 | 56 | 181 | 1.7 | 7.0 | 0.00 | 0.49 | 0.00 | 85 | 1013.1 |
| 20260503050542 | 56 | 190 | 1.7 | 5.2 | 0.00 | 0.49 | 0.00 | 85 | 1013.1 |
| 20260503050054 | 56 | 141 | 1.7 | 4.3 | 0.00 | 0.49 | 0.00 | 85 | 1013.0 |
| 20260503045545 | 56 | 130 | 0.9 | 3.5 | 0.00 | 0.49 | 0.00 | 85 | 1013.0 |
| 20260503045045 | 56 | 134 | 1.7 | 3.5 | 0.00 | 0.49 | 0.00 | 85 | 1013.0 |
| 20260503044552 | 56 | 169 | 0.0 | 2.6 | 0.00 | 0.49 | 0.00 | 85 | 1013.1 |
| 20260503044042 | 56 | 0 | 0.9 | 2.6 | 0.00 | 0.49 | 0.00 | 85 | 1013.2 |
| 20260503043541 | 56 | 169 | 0.0 | 1.7 | 0.00 | 0.49 | 0.00 | 85 | 1013.3 |
| 20260503043050 | 56 | 169 | 0.0 | 1.7 | 0.00 | 0.49 | 0.00 | 84 | 1013.3 |
| 20260503042541 | 56 | 169 | 0.9 | 2.6 | 0.00 | 0.49 | 0.00 | 84 | 1013.4 |
| 20260503042044 | 56 | 0 | 0.9 | 5.2 | 0.00 | 0.49 | 0.00 | 84 | 1013.3 |
| 20260503041553 | 56 | 169 | 0.9 | 5.2 | 0.00 | 0.49 | 0.00 | 84 | 1013.2 |
| 20260503041044 | 56 | 120 | 0.9 | 4.3 | 0.00 | 0.49 | 0.00 | 84 | 1013.2 |
| 20260503040544 | 56 | 122 | 1.7 | 4.3 | 0.00 | 0.49 | 0.00 | 84 | 1013.2 |
| 20260503040113 | 56 | 154 | 1.7 | 4.3 | 0.00 | 0.49 | 0.00 | 84 | 1013.2 |
| 20260503035541 | 56 | 128 | 1.7 | 4.3 | 0.00 | 0.49 | 0.00 | 84 | 1013.3 |
| 20260503035042 | 56 | 147 | 0.9 | 3.5 | 0.00 | 0.49 | 0.00 | 85 | 1013.4 |
| 20260503034556 | 56 | 0 | 0.9 | 6.1 | 0.00 | 0.49 | 0.00 | 85 | 1013.4 |
| 20260503034044 | 56 | 125 | 0.9 | 6.1 | 0.00 | 0.49 | 0.00 | 84 | 1013.4 |
| 20260503033542 | 56 | 153 | 0.9 | 5.2 | 0.00 | 0.49 | 0.00 | 84 | 1013.5 |
| 20260503033052 | 56 | 130 | 1.7 | 5.2 | 0.00 | 0.49 | 0.00 | 84 | 1013.5 |
| 20260503032542 | 56 | 128 | 0.9 | 3.5 | 0.00 | 0.49 | 0.00 | 84 | 1013.6 |
| 20260503032042 | 56 | 137 | 0.0 | 3.5 | 0.00 | 0.49 | 0.00 | 84 | 1013.7 |
| 20260503031602 | 56 | 78 | 0.9 | 3.5 | 0.00 | 0.49 | 0.00 | 84 | 1013.7 |
| 20260503031044 | 57 | 80 | 0.9 | 3.5 | 0.00 | 0.49 | 0.00 | 84 | 1013.8 |
| 20260503030545 | 57 | 136 | 0.9 | 3.5 | 0.00 | 0.49 | 0.00 | 84 | 1013.8 |
| 20260503030050 | 57 | 0 | 0.9 | 2.6 | 0.00 | 0.49 | 0.00 | 84 | 1013.9 |
| 20260503025542 | 57 | 114 | 0.0 | 1.7 | 0.00 | 0.49 | 0.00 | 84 | 1013.9 |
| 20260503025041 | 57 | 0 | 0.0 | 2.6 | 0.00 | 0.49 | 0.00 | 83 | 1013.9 |
| 20260503024551 | 57 | 0 | 0.0 | 2.6 | 0.00 | 0.49 | 0.00 | 83 | 1013.9 |
| 20260503024044 | 57 | 87 | 0.9 | 2.6 | 0.00 | 0.49 | 0.00 | 83 | 1013.9 |
| 20260503023542 | 57 | 0 | 0.0 | 2.6 | 0.00 | 0.49 | 0.00 | 82 | 1013.9 |
| 20260503023051 | 58 | 153 | 0.0 | 2.6 | 0.00 | 0.49 | 0.00 | 82 | 1013.9 |
| 20260503022544 | 58 | 0 | 0.0 | 3.5 | 0.00 | 0.49 | 0.00 | 81 | 1013.9 |
| 20260503022046 | 58 | 153 | 0.9 | 3.5 | 0.00 | 0.49 | 0.00 | 80 | 1013.9 |
| 20260503021602 | 59 | 100 | 0.0 | 2.6 | 0.00 | 0.49 | 0.00 | 80 | 1013.9 |
| 20260503021047 | 59 | 0 | 0.0 | 1.7 | 0.00 | 0.49 | 0.00 | 79 | 1013.9 |
| 20260503020546 | 59 | 0 | 0.0 | 1.7 | 0.00 | 0.49 | 0.00 | 78 | 1013.9 |
| 20260503020052 | 59 | 0 | 0.0 | 1.7 | 0.00 | 0.49 | 0.00 | 77 | 1014.0 |
| 20260503015546 | 59 | 0 | 0.0 | 0.0 | 0.00 | 0.49 | 0.00 | 77 | 1014.0 |
| 20260503015045 | 59 | 0 | 0.0 | 0.0 | 0.00 | 0.49 | 0.00 | 78 | 1013.9 |
| 20260503014609 | 59 | 0 | 0.0 | 0.0 | 0.00 | 0.49 | 0.00 | 80 | 1014.0 |
| 20260503014047 | 58 | 0 | 0.0 | 0.0 | 0.00 | 0.49 | 0.00 | 80 | 1014.0 |
| 20260503013548 | 58 | 0 | 0.0 | 0.0 | 0.00 | 0.49 | 0.00 | 80 | 1014.0 |
| 20260503013054 | 58 | 0 | 0.0 | 0.9 | 0.00 | 0.49 | 0.00 | 81 | 1014.0 |
| 20260503012547 | 58 | 0 | 0.0 | 0.9 | 0.00 | 0.49 | 0.00 | 80 | 1014.1 |
| 20260503012047 | 58 | 0 | 0.0 | 1.7 | 0.00 | 0.49 | 0.00 | 80 | 1014.1 |
| 20260503011600 | 58 | 0 | 0.0 | 1.7 | 0.00 | 0.49 | 0.00 | 80 | 1014.2 |
| 20260503011047 | 59 | 0 | 0.0 | 0.9 | 0.00 | 0.49 | 0.00 | 80 | 1014.2 |
| 20260503010547 | 59 | 0 | 0.0 | 0.9 | 0.00 | 0.49 | 0.00 | 80 | 1014.3 |
| 20260503010050 | 59 | 310 | 0.0 | 0.9 | 0.00 | 0.49 | 0.00 | 80 | 1014.3 |
| 20260503005551 | 59 | 0 | 0.0 | 0.0 | 0.00 | 0.49 | 0.00 | 80 | 1014.4 |
| 20260503005047 | 59 | 0 | 0.0 | 0.0 | 0.00 | 0.49 | 0.00 | 80 | 1014.4 |
| 20260503004616 | 59 | 0 | 0.0 | 0.0 | 0.00 | 0.49 | 0.00 | 80 | 1014.4 |
| 20260503004050 | 59 | 0 | 0.0 | 0.0 | 0.00 | 0.49 | 0.00 | 80 | 1014.5 |
| 20260503003546 | 59 | 0 | 0.0 | 1.7 | 0.00 | 0.49 | 0.00 | 80 | 1014.5 |
| 20260503003049 | 59 | 0 | 0.0 | 1.7 | 0.00 | 0.49 | 0.00 | 80 | 1014.5 |
| 20260503002550 | 59 | 310 | 0.0 | 1.7 | 0.00 | 0.49 | 0.00 | 79 | 1014.5 |
| 20260503002046 | 59 | 0 | 0.0 | 0.9 | 0.00 | 0.49 | 0.00 | 79 | 1014.6 |
| 20260503001601 | 59 | 0 | 0.0 | 0.9 | 0.00 | 0.49 | 0.00 | 79 | 1014.6 |
| 20260503001043 | 59 | 0 | 0.0 | 0.9 | 0.00 | 0.49 | 0.00 | 78 | 1014.9 |
| 20260503000543 | 59 | 0 | 0.0 | 0.9 | 0.00 | 0.49 | 0.00 | 78 | 1014.9 |
| 20260503000050 | 59 | 0 | 0.0 | 0.0 | 0.00 | 0.49 | 0.00 | 77 | 1014.9 |
| 20260502235542 | 59 | 0 | 0.0 | 0.0 | 0.00 | 0.49 | 0.00 | 78 | 1015.0 |
| 20260502235048 | 59 | 0 | 0.0 | 0.0 | 0.00 | 0.49 | 0.00 | 79 | 1014.9 |
| 20260502234554 | 59 | 0 | 0.0 | 0.0 | 0.00 | 0.49 | 0.00 | 79 | 1014.9 |
| 20260502234047 | 59 | 0 | 0.0 | 0.0 | 0.00 | 0.49 | 0.00 | 80 | 1015.0 |
| 20260502233547 | 58 | 0 | 0.0 | 0.9 | 0.00 | 0.49 | 0.00 | 80 | 1015.0 |
| 20260502233055 | 58 | 0 | 0.0 | 1.7 | 0.00 | 0.49 | 0.00 | 80 | 1015.0 |
| 20260502232550 | 58 | 0 | 0.0 | 1.7 | 0.00 | 0.49 | 0.00 | 80 | 1015.0 |
| 20260502232047 | 59 | 0 | 0.0 | 2.6 | 0.00 | 0.49 | 0.00 | 80 | 1015.0 |
| 20260502231552 | 59 | 0 | 0.9 | 2.6 | 0.00 | 0.49 | 0.00 | 80 | 1015.0 |
| 20260502231047 | 59 | 0 | 0.9 | 2.6 | 0.00 | 0.49 | 0.00 | 79 | 1015.0 |
| 20260502230544 | 59 | 310 | 0.9 | 4.3 | 0.00 | 0.49 | 0.00 | 77 | 1015.0 |
| 20260502230054 | 60 | 310 | 1.7 | 4.3 | 0.00 | 0.49 | 0.00 | 75 | 1015.0 |
| 20260502225545 | 60 | 309 | 0.9 | 4.3 | 0.00 | 0.49 | 0.00 | 72 | 1015.0 |
| 20260502225045 | 61 | 0 | 0.0 | 4.3 | 0.00 | 0.49 | 0.00 | 71 | 1015.1 |
| 20260502224548 | 61 | 175 | 1.7 | 4.3 | 0.00 | 0.49 | 0.00 | 71 | 1015.1 |
| 20260502224045 | 60 | 202 | 0.9 | 4.3 | 0.00 | 0.49 | 0.00 | 72 | 1015.1 |
| 20260502223544 | 60 | 193 | 1.7 | 5.2 | 0.00 | 0.49 | 0.00 | 72 | 1015.1 |
| 20260502223057 | 60 | 190 | 0.9 | 6.1 | 0.00 | 0.49 | 0.00 | 72 | 1015.0 |
| 20260502222547 | 60 | 175 | 2.6 | 6.1 | 0.00 | 0.49 | 0.00 | 72 | 1015.1 |
| 20260502222048 | 60 | 163 | 2.6 | 6.1 | 0.00 | 0.49 | 0.00 | 72 | 1015.1 |
| 20260502221550 | 61 | 170 | 3.5 | 6.1 | 0.00 | 0.49 | 0.00 | 72 | 1015.1 |
| 20260502221048 | 61 | 130 | 3.5 | 7.0 | 0.00 | 0.49 | 0.00 | 72 | 1015.2 |
| 20260502220547 | 61 | 193 | 3.5 | 7.0 | 0.00 | 0.49 | 0.00 | 72 | 1015.2 |
| 20260502220053 | 61 | 180 | 2.6 | 5.2 | 0.00 | 0.49 | 0.00 | 72 | 1015.2 |
| 20260502215547 | 61 | 185 | 1.7 | 5.2 | 0.00 | 0.49 | 0.49 | 72 | 1015.3 |
| 20260502215046 | 61 | 203 | 1.7 | 5.2 | 0.00 | 0.49 | 0.49 | 72 | 1015.3 |
| 20260502214552 | 61 | 194 | 1.7 | 5.2 | 0.00 | 0.49 | 0.49 | 72 | 1015.4 |
| 20260502214046 | 61 | 177 | 1.7 | 5.2 | 0.00 | 0.49 | 0.49 | 72 | 1015.4 |
| 20260502213546 | 61 | 174 | 1.7 | 3.5 | 0.00 | 0.49 | 0.49 | 72 | 1015.3 |
| 20260502213051 | 61 | 220 | 1.7 | 3.5 | 0.00 | 0.49 | 0.49 | 72 | 1015.3 |
| 20260502212545 | 61 | 174 | 1.7 | 6.1 | 0.00 | 0.49 | 0.49 | 73 | 1015.3 |
| 20260502212047 | 61 | 155 | 0.9 | 6.1 | 0.00 | 0.49 | 0.49 | 73 | 1015.2 |
| 20260502211551 | 61 | 168 | 2.6 | 6.1 | 0.00 | 0.49 | 0.49 | 73 | 1015.2 |
| 20260502211050 | 61 | 170 | 2.6 | 5.2 | 0.00 | 0.49 | 0.49 | 73 | 1015.2 |
| 20260502210548 | 61 | 174 | 1.7 | 3.5 | 0.00 | 0.49 | 0.49 | 74 | 1015.1 |
| 20260502210107 | 60 | 234 | 0.9 | 2.6 | 0.00 | 0.49 | 0.49 | 75 | 1015.2 |
| 20260502205546 | 60 | 0 | 0.0 | 0.9 | 0.00 | 0.49 | 0.49 | 76 | 1015.1 |
| 20260502205047 | 60 | 0 | 0.0 | 1.7 | 0.00 | 0.49 | 0.49 | 75 | 1015.2 |
| 20260502204557 | 60 | 0 | 0.0 | 2.6 | 0.00 | 0.49 | 0.49 | 75 | 1015.3 |
| 20260502204044 | 60 | 0 | 0.0 | 3.5 | 0.00 | 0.49 | 0.49 | 74 | 1015.2 |
| 20260502203547 | 61 | 234 | 0.9 | 3.5 | 0.00 | 0.49 | 0.49 | 74 | 1015.0 |